Hourly Weather Bolshie Kaskevichi

Today, 18 June, Friday

Time Temperature Precipitation Wind Pressure Humidity
00:00 +16°C° 0 mm 2 mps 751 mmHg 87%
01:00 +15°C° 0 mm 2 mps 751 mmHg 88%
02:00 +15°C° 0 mm 2 mps 751 mmHg 89%
03:00 +15°C° 0 mm 2 mps 751 mmHg 88%
04:00 +16°C° 0 mm 2 mps 751 mmHg 87%
05:00 +16°C° 0 mm 1 mps 751 mmHg 86%
06:00 +18°C° 0 mm 2 mps 751 mmHg 80%
07:00 +19°C° 0 mm 2 mps 751 mmHg 74%
08:00 +21°C° 0 mm 2 mps 752 mmHg 69%
09:00 +22°C° 0 mm 3 mps 751 mmHg 65%
10:00 +24°C° 0 mm 3 mps 751 mmHg 61%
11:00 +25°C° 0 mm 3 mps 751 mmHg 57%
12:00 +26°C° 0 mm 4 mps 751 mmHg 56%
13:00 +26°C° 0 mm 4 mps 751 mmHg 55%
14:00 +26°C° 0 mm 4 mps 751 mmHg 54%
15:00 +26°C° 0 mm 4 mps 751 mmHg 57%
16:00 +26°C° 0 mm 3 mps 750 mmHg 60%
17:00 +26°C° 0 mm 3 mps 750 mmHg 63%
18:00 +24°C° 0 mm 3 mps 750 mmHg 70%
19:00 +23°C° 0 mm 2 mps 750 mmHg 76%
20:00 +20°C° 0 mm 2 mps 750 mmHg 82%
21:00 +19°C° 0 mm 2 mps 750 mmHg 85%
22:00 +18°C° 0 mm 2 mps 750 mmHg 87%
23:00 +17°C° 0 mm 2 mps 751 mmHg 90%

Tomorrow, 19 June, Saturday

Time Temperature Precipitation Wind Pressure Humidity
00:00 +17°C° 0 mm 2 mps 751 mmHg 91%
01:00 +16°C° 0 mm 2 mps 751 mmHg 92%
02:00 +16°C° 0 mm 2 mps 751 mmHg 93%
03:00 +16°C° 0 mm 2 mps 750 mmHg 93%
04:00 +16°C° 0 mm 2 mps 750 mmHg 93%
05:00 +16°C° 0 mm 2 mps 750 mmHg 93%
06:00 +18°C° 0 mm 2 mps 750 mmHg 87%
07:00 +20°C° 0 mm 3 mps 751 mmHg 82%
08:00 +22°C° 0 mm 3 mps 751 mmHg 76%
09:00 +24°C° 0 mm 3 mps 750 mmHg 72%
10:00 +25°C° 0 mm 3 mps 750 mmHg 67%
11:00 +26°C° 0 mm 4 mps 750 mmHg 62%
12:00 +26°C° 0 mm 4 mps 750 mmHg 60%
13:00 +27°C° 0 mm 4 mps 750 mmHg 59%
14:00 +27°C° 0 mm 3 mps 749 mmHg 57%
15:00 +27°C° 0 mm 3 mps 749 mmHg 59%
16:00 +27°C° 0 mm 3 mps 749 mmHg 61%
17:00 +27°C° 0 mm 3 mps 749 mmHg 64%
18:00 +25°C° 0 mm 3 mps 749 mmHg 70%
19:00 +24°C° 0 mm 3 mps 749 mmHg 77%
20:00 +21°C° 0 mm 2 mps 749 mmHg 83%
21:00 +21°C° 0 mm 2 mps 749 mmHg 86%
22:00 +20°C° 0 mm 3 mps 749 mmHg 89%
23:00 +19°C° 0 mm 3 mps 749 mmHg 92%

Day after tomorrow, 20 June, Sunday

Time Temperature Precipitation Wind Pressure Humidity
00:00 +19°C° 0 mm 2 mps 749 mmHg 93%
01:00 +18°C° 0 mm 2 mps 749 mmHg 94%
02:00 +18°C° 0 mm 2 mps 749 mmHg 95%
03:00 +18°C° 0 mm 2 mps 749 mmHg 94%
04:00 +18°C° 0 mm 2 mps 749 mmHg 94%
05:00 +19°C° 0 mm 2 mps 749 mmHg 94%
06:00 +20°C° 0 mm 3 mps 749 mmHg 88%
07:00 +21°C° 0 mm 3 mps 749 mmHg 82%
08:00 +23°C° 0 mm 4 mps 749 mmHg 76%
09:00 +25°C° 0 mm 4 mps 748 mmHg 72%
10:00 +26°C° 0 mm 4 mps 748 mmHg 68%
11:00 +27°C° 0 mm 4 mps 748 mmHg 64%
12:00 +27°C° 0 mm 4 mps 748 mmHg 63%
13:00 +28°C° 0 mm 4 mps 748 mmHg 62%
14:00 +28°C° 0 mm 4 mps 747 mmHg 61%
15:00 +28°C° 0 mm 4 mps 747 mmHg 63%
16:00 +28°C° 0 mm 4 mps 747 mmHg 66%
17:00 +28°C° 0 mm 4 mps 747 mmHg 69%
18:00 +26°C° 0 mm 4 mps 747 mmHg 75%
19:00 +25°C° 0 mm 3 mps 746 mmHg 81%
20:00 +24°C° 0 mm 3 mps 746 mmHg 86%
21:00 +22°C° 0 mm 3 mps 746 mmHg 88%
22:00 +21°C° 0 mm 3 mps 746 mmHg 90%
23:00 +20°C° 0 mm 2 mps 746 mmHg 92%

21 June, Monday

Time Temperature Precipitation Wind Pressure Humidity
00:00 +19°C° 0 mm 2 mps 746 mmHg 93%
01:00 +19°C° 0 mm 3 mps 746 mmHg 93%
02:00 +18°C° 0 mm 3 mps 746 mmHg 93%
03:00 +18°C° 0 mm 3 mps 746 mmHg 92%
04:00 +18°C° 0 mm 2 mps 746 mmHg 92%
05:00 +18°C° 0 mm 2 mps 746 mmHg 91%
06:00 +20°C° 0 mm 3 mps 746 mmHg 85%
07:00 +21°C° 0 mm 4 mps 746 mmHg 78%
08:00 +22°C° 0 mm 4 mps 746 mmHg 72%
09:00 +25°C° 0 mm 4 mps 745 mmHg 67%
10:00 +26°C° 0 mm 5 mps 745 mmHg 62%
11:00 +27°C° 0 mm 5 mps 745 mmHg 58%
12:00 +28°C° 0 mm 5 mps 745 mmHg 58%
13:00 +28°C° 0 mm 6 mps 744 mmHg 59%
14:00 +28°C° 0 mm 6 mps 744 mmHg 60%
15:00 +28°C° 0 mm 6 mps 744 mmHg 62%
16:00 +28°C° 0 mm 5 mps 744 mmHg 64%
17:00 +29°C° 0 mm 5 mps 744 mmHg 66%
18:00 +27°C° 0 mm 5 mps 743 mmHg 72%
19:00 +26°C° 0 mm 4 mps 743 mmHg 77%
20:00 +24°C° 0 mm 3 mps 743 mmHg 83%
21:00 +22°C° 0 mm 3 mps 743 mmHg 86%
22:00 +21°C° 0 mm 3 mps 743 mmHg 89%
23:00 +21°C° 0 mm 3 mps 743 mmHg 93%

22 June, Tuesday

Time Temperature Precipitation Wind Pressure Humidity
00:00 +20°C° 0 mm 3 mps 743 mmHg 94%
01:00 +20°C° 0 mm 3 mps 743 mmHg 95%
02:00 +20°C° 0 mm 3 mps 743 mmHg 96%
03:00 +20°C° 0 mm 3 mps 743 mmHg 96%
04:00 +20°C° 0 mm 3 mps 744 mmHg 95%
05:00 +20°C° 0 mm 3 mps 744 mmHg 95%
06:00 +21°C° 0 mm 4 mps 744 mmHg 89%
07:00 +23°C° 0 mm 4 mps 744 mmHg 83%
08:00 +25°C° 0 mm 5 mps 744 mmHg 77%
09:00 +27°C° 0 mm 5 mps 744 mmHg 72%
10:00 +28°C° 0 mm 5 mps 744 mmHg 67%
11:00 +29°C° 0 mm 5 mps 744 mmHg 62%
12:00 +29°C° 0 mm 5 mps 744 mmHg 59%
13:00 +30°C° 0 mm 5 mps 744 mmHg 57%
14:00 +32°C° 0 mm 5 mps 744 mmHg 55%
15:00 +30°C° 0 mm 5 mps 744 mmHg 57%
16:00 +30°C° 0 mm 5 mps 744 mmHg 60%
17:00 +30°C° 0 mm 4 mps 744 mmHg 62%
18:00 +29°C° 0 mm 4 mps 744 mmHg 69%
19:00 +27°C° 0 mm 4 mps 744 mmHg 76%
20:00 +25°C° 0 mm 3 mps 744 mmHg 83%
21:00 +24°C° 0 mm 3 mps 744 mmHg 86%
22:00 +22°C° 0 mm 3 mps 744 mmHg 89%
23:00 +21°C° 0 mm 3 mps 745 mmHg 92%

23 June, Wednesday

Time Temperature Precipitation Wind Pressure Humidity
00:00 +21°C° 0 mm 3 mps 745 mmHg 93%
01:00 +20°C° 0 mm 3 mps 745 mmHg 94%
02:00 +20°C° 0 mm 3 mps 745 mmHg 95%
03:00 +20°C° 0 mm 3 mps 745 mmHg 95%
04:00 +20°C° 0 mm 3 mps 745 mmHg 95%
05:00 +20°C° 0 mm 3 mps 745 mmHg 95%
06:00 +22°C° 0 mm 3 mps 745 mmHg 89%
07:00 +25°C° 0 mm 3 mps 745 mmHg 82%
08:00 +27°C° 0 mm 4 mps 745 mmHg 76%
09:00 +28°C° 0 mm 4 mps 745 mmHg 71%
10:00 +29°C° 0 mm 5 mps 745 mmHg 66%
11:00 +30°C° 0 mm 5 mps 745 mmHg 61%
12:00 +32°C° 0 mm 5 mps 745 mmHg 58%
13:00 +32°C° 0 mm 5 mps 745 mmHg 55%
14:00 +33°C° 0 mm 5 mps 745 mmHg 52%
15:00 +33°C° 0 mm 5 mps 745 mmHg 55%
16:00 +32°C° 0 mm 5 mps 745 mmHg 58%
17:00 +32°C° 0 mm 4 mps 745 mmHg 61%
18:00 +30°C° 0 mm 4 mps 745 mmHg 68%
19:00 +28°C° 0 mm 3 mps 745 mmHg 75%
20:00 +26°C° 0 mm 3 mps 744 mmHg 82%
21:00 +26°C° 0 mm 3 mps 744 mmHg 84%
22:00 +25°C° 0 mm 3 mps 745 mmHg 87%
23:00 +24°C° 0 mm 3 mps 745 mmHg 89%
Show more